When you browse on this site, cookies collect data to enhance your experience and personalize the content and advertising you see.
Visit our Privacy Policy to learn more. By continuing to use the site, you agree to this use of cookies and data.
  • en Suisse
  • Liste des pays
  • À 7 jours
  • Température de l'eau
  • Carte météo
  • Widgets météo
  • user-avatar
    Se connecter

    Météo par heure à San Luis

    Ce jour, 3 Juin, Mercredi

    Heure Température Précipitation Vent Pression Humidité
    00:00 +7°C° 0 mm 2 m/s 696 mmHg 61%
    01:00 +7°C° 0 mm 2 m/s 696 mmHg 64%
    02:00 +7°C° 0 mm 2 m/s 696 mmHg 64%
    03:00 +6°C° 0 mm 2 m/s 696 mmHg 66%
    04:00 +7°C° 0 mm 1 m/s 696 mmHg 68%
    05:00 +7°C° 0 mm 1 m/s 696 mmHg 70%
    06:00 +7°C° 0 mm 1 m/s 697 mmHg 67%
    07:00 +7°C° 0 mm 2 m/s 698 mmHg 64%
    08:00 +8°C° 0 mm 2 m/s 699 mmHg 60%
    09:00 +8°C° 0 mm 2 m/s 700 mmHg 59%
    10:00 +8°C° 0 mm 2 m/s 701 mmHg 58%
    11:00 +8°C° 0 mm 3 m/s 701 mmHg 57%
    12:00 +8°C° 0 mm 3 m/s 701 mmHg 57%
    13:00 +9°C° 0 mm 2 m/s 702 mmHg 57%
    14:00 +9°C° 0 mm 2 m/s 702 mmHg 57%
    15:00 +9°C° 0 mm 3 m/s 702 mmHg 60%
    16:00 +9°C° 0 mm 3 m/s 702 mmHg 62%
    17:00 +8°C° 0 mm 4 m/s 703 mmHg 65%
    18:00 +7°C° 0 mm 4 m/s 703 mmHg 68%
    19:00 +7°C° 0 mm 4 m/s 703 mmHg 70%
    20:00 +6°C° 0 mm 5 m/s 704 mmHg 73%
    21:00 +6°C° 0 mm 4 m/s 704 mmHg 73%
    22:00 +7°C° 0 mm 3 m/s 704 mmHg 73%
    23:00 +8°C° 0 mm 2 m/s 704 mmHg 72%

    Demain, 4 Juin, Jeudi

    Heure Température Précipitation Vent Pression Humidité
    00:00 +7°C° 0 mm 2 m/s 704 mmHg 74%
    01:00 +7°C° 0 mm 2 m/s 704 mmHg 76%
    02:00 +7°C° 0 mm 2 m/s 704 mmHg 79%
    03:00 +6°C° 0 mm 2 m/s 703 mmHg 80%
    04:00 +6°C° 0 mm 2 m/s 703 mmHg 82%
    05:00 +5°C° 0 mm 3 m/s 703 mmHg 83%
    06:00 +5°C° 0 mm 3 m/s 703 mmHg 84%
    07:00 +5°C° 0 mm 3 m/s 703 mmHg 85%
    08:00 +6°C° 0 mm 2 m/s 704 mmHg 86%
    09:00 +8°C° 0 mm 3 m/s 704 mmHg 78%
    10:00 +8°C° 0 mm 4 m/s 704 mmHg 70%
    11:00 +10°C° 0 mm 5 m/s 704 mmHg 63%
    12:00 +10°C° 0 mm 5 m/s 703 mmHg 58%
    13:00 +12°C° 0 mm 5 m/s 703 mmHg 54%
    14:00 +13°C° 0 mm 5 m/s 702 mmHg 50%
    15:00 +13°C° 0 mm 4 m/s 702 mmHg 52%
    16:00 +12°C° 0 mm 3 m/s 701 mmHg 54%
    17:00 +12°C° 0 mm 2 m/s 701 mmHg 57%
    18:00 +10°C° 0 mm 2 m/s 701 mmHg 63%
    19:00 +9°C° 0 mm 1 m/s 700 mmHg 70%
    20:00 +8°C° 0 mm 1 m/s 700 mmHg 76%
    21:00 +8°C° 0 mm 1 m/s 700 mmHg 78%
    22:00 +6°C° 0 mm 2 m/s 701 mmHg 80%
    23:00 +6°C° 0 mm 2 m/s 701 mmHg 81%

    Après-demain, 5 Juin, Vendredi

    Heure Température Précipitation Vent Pression Humidité
    00:00 +6°C° 0 mm 2 m/s 701 mmHg 80%
    01:00 +6°C° 0 mm 2 m/s 700 mmHg 78%
    02:00 +7°C° 0 mm 3 m/s 700 mmHg 77%
    03:00 +5°C° 0 mm 3 m/s 700 mmHg 78%
    04:00 +5°C° 0 mm 4 m/s 700 mmHg 80%
    05:00 +5°C° 0 mm 4 m/s 700 mmHg 81%
    06:00 +5°C° 0 mm 4 m/s 700 mmHg 80%
    07:00 +5°C° 0 mm 3 m/s 700 mmHg 79%
    08:00 +7°C° 0 mm 3 m/s 700 mmHg 78%
    09:00 +9°C° 0 mm 3 m/s 700 mmHg 67%
    10:00 +12°C° 0 mm 4 m/s 700 mmHg 56%
    11:00 +15°C° 0 mm 4 m/s 701 mmHg 45%
    12:00 +15°C° 0 mm 4 m/s 700 mmHg 42%
    13:00 +17°C° 0 mm 3 m/s 700 mmHg 38%
    14:00 +18°C° 0 mm 3 m/s 699 mmHg 35%
    15:00 +17°C° 0 mm 2 m/s 699 mmHg 38%
    16:00 +16°C° 0 mm 2 m/s 698 mmHg 41%
    17:00 +15°C° 0 mm 2 m/s 698 mmHg 44%
    18:00 +14°C° 0 mm 2 m/s 698 mmHg 50%
    19:00 +12°C° 0 mm 2 m/s 697 mmHg 57%
    20:00 +9°C° 0 mm 2 m/s 697 mmHg 63%
    21:00 +9°C° 0 mm 2 m/s 697 mmHg 64%
    22:00 +9°C° 0 mm 2 m/s 697 mmHg 64%
    23:00 +9°C° 0 mm 2 m/s 697 mmHg 65%

    6 Juin, Samedi

    Heure Température Précipitation Vent Pression Humidité
    00:00 +9°C° 0 mm 2 m/s 697 mmHg 66%
    01:00 +8°C° 0 mm 3 m/s 697 mmHg 67%
    02:00 +8°C° 0 mm 3 m/s 697 mmHg 68%
    03:00 +8°C° 0 mm 3 m/s 696 mmHg 68%
    04:00 +7°C° 0 mm 2 m/s 696 mmHg 68%
    05:00 +7°C° 0 mm 2 m/s 695 mmHg 68%
    06:00 +7°C° 0 mm 2 m/s 696 mmHg 66%
    07:00 +7°C° 0 mm 2 m/s 696 mmHg 63%
    08:00 +8°C° 0 mm 2 m/s 696 mmHg 61%
    09:00 +11°C° 0 mm 3 m/s 696 mmHg 51%
    10:00 +14°C° 0 mm 3 m/s 697 mmHg 41%
    11:00 +18°C° 0 mm 4 m/s 697 mmHg 30%
    12:00 +19°C° 0 mm 4 m/s 697 mmHg 27%
    13:00 +20°C° 0 mm 4 m/s 697 mmHg 24%
    14:00 +21°C° 0 mm 4 m/s 696 mmHg 22%
    15:00 +20°C° 0 mm 4 m/s 696 mmHg 25%
    16:00 +18°C° 0 mm 3 m/s 696 mmHg 28%
    17:00 +17°C° 0 mm 3 m/s 696 mmHg 32%
    18:00 +14°C° 0 mm 3 m/s 696 mmHg 36%
    19:00 +13°C° 0 mm 3 m/s 697 mmHg 39%
    20:00 +11°C° 0 mm 3 m/s 697 mmHg 43%
    21:00 +10°C° 0 mm 2 m/s 697 mmHg 46%
    22:00 +10°C° 0 mm 2 m/s 698 mmHg 49%
    23:00 +9°C° 0 mm 2 m/s 698 mmHg 52%

    7 Juin, Dimanche

    Heure Température Précipitation Vent Pression Humidité
    00:00 +9°C° 0 mm 2 m/s 698 mmHg 55%
    01:00 +9°C° 0 mm 1 m/s 698 mmHg 58%
    02:00 +8°C° 0 mm 1 m/s 699 mmHg 61%
    03:00 +8°C° 0 mm 1 m/s 699 mmHg 63%
    04:00 +7°C° 0 mm 1 m/s 698 mmHg 66%
    05:00 +7°C° 0 mm 1 m/s 698 mmHg 68%
    06:00 +7°C° 0 mm 1 m/s 699 mmHg 65%
    07:00 +7°C° 0 mm 1 m/s 699 mmHg 63%
    08:00 +8°C° 0 mm 1 m/s 699 mmHg 60%
    09:00 +10°C° 0 mm 2 m/s 700 mmHg 52%
    10:00 +13°C° 0 mm 3 m/s 700 mmHg 44%
    11:00 +17°C° 0 mm 4 m/s 701 mmHg 36%
    12:00 +17°C° 0 mm 6 m/s 700 mmHg 37%
    13:00 +18°C° 0 mm 7 m/s 699 mmHg 37%
    14:00 +20°C° 0 mm 8 m/s 699 mmHg 37%
    15:00 +18°C° 0 mm 7 m/s 698 mmHg 40%
    16:00 +17°C° 0 mm 6 m/s 698 mmHg 44%
    17:00 +17°C° 0 mm 4 m/s 698 mmHg 47%
    18:00 +14°C° 0 mm 4 m/s 698 mmHg 53%
    19:00 +13°C° 0 mm 3 m/s 698 mmHg 59%
    20:00 +11°C° 0 mm 3 m/s 697 mmHg 65%
    21:00 +11°C° 0 mm 4 m/s 698 mmHg 66%
    22:00 +10°C° 0 mm 5 m/s 698 mmHg 67%
    23:00 +10°C° 0 mm 6 m/s 698 mmHg 68%

    8 Juin, Lundi

    Heure Température Précipitation Vent Pression Humidité
    00:00 +10°C° 0 mm 6 m/s 698 mmHg 69%
    01:00 +10°C° 0 mm 6 m/s 698 mmHg 69%
    02:00 +10°C° 0 mm 5 m/s 698 mmHg 70%
    03:00 +9°C° 0 mm 5 m/s 697 mmHg 70%
    04:00 +10°C° 0 mm 4 m/s 697 mmHg 70%
    05:00 +10°C° 0 mm 4 m/s 697 mmHg 70%
    06:00 +10°C° 0 mm 4 m/s 697 mmHg 69%
    07:00 +10°C° 0 mm 4 m/s 697 mmHg 68%
    08:00 +10°C° 0 mm 4 m/s 697 mmHg 67%
    09:00 +13°C° 0 mm 4 m/s 698 mmHg 59%
    10:00 +15°C° 0 mm 4 m/s 698 mmHg 50%
    11:00 +19°C° 0 mm 4 m/s 698 mmHg 41%
    12:00 +20°C° 0 mm 4 m/s 697 mmHg 39%
    13:00 +20°C° 0 mm 4 m/s 697 mmHg 36%
    14:00 +21°C° 0 mm 4 m/s 696 mmHg 34%
    15:00 +20°C° 0 mm 3 m/s 696 mmHg 38%
    16:00 +19°C° 0 mm 3 m/s 695 mmHg 43%
    17:00 +18°C° 0 mm 3 m/s 694 mmHg 47%
    18:00 +16°C° 0 mm 2 m/s 694 mmHg 54%
    19:00 +14°C° 0 mm 2 m/s 694 mmHg 61%
    20:00 +12°C° 0 mm 2 m/s 694 mmHg 69%
    21:00 +10°C° 0 mm 2 m/s 694 mmHg 72%
    22:00 +11°C° 0 mm 1 m/s 694 mmHg 75%
    23:00 +10°C° 0 mm 1 m/s 694 mmHg 78%
    Voir plus